410  
ASUS41 KBGM 241410  
RWRBGM  
 
REGIONAL WEATHER ROUNDUP  
NATIONAL WEATHER SERVICE BINGHAMTON NY  
1000 AM EDT MON JUL 24 2017  
 
NOTE: "FAIR" INDICATES FEW OR NO CLOUDS BELOW 12,000 FEET WITH NO  
SIGNIFICANT WEATHER AND/OR S TO VISIBILITY
.  
 
* = STATION(S) THAT DOES NOT REPORT PRECIPITATION, SUCH AS RAIN,  
SNOW, ETC, ALSO NO THUNDER OR FOG.
 
 
NYZ009-015>018-022>025-036-037-044>046-055>057-062-241500   
..CENTRAL NEW YORK
 
 
 
CITY SKY/WX TMP DP RH WIND PRES REMARKS
 
BINGHAMTON CLOUDY 65 63 93 S7 29.82S  
CORTLAND LGT RAIN 68 64 88 SW8 29.80S  
DANSVILLE CLOUDY 75 66 73 NW6 29.78R  
ELMIRA PTSUNNY 71 67 87 CALM 29.79S  
SENECA FALLS RAIN 66 66 100 S9 29.78S  
ITHACA HVY RAIN 66 63 90 S7 29.81S  
HAMILTON CLOUDY 66 61 82 SE9 29.82R  
HORNELL PTSUNNY 73 66 78 W10 29.83S  
MONTICELLO NOT AVBL  
NORWICH CLOUDY 68 63 83 S3 29.82S  
ONEONTA MOSUNNY 63 N/A N/A CALM 29.85S  
PENN YAN CLOUDY 72 65 78 S9 29.78S  
ROME CLOUDY 64 60 87 SE21G26 29.83R  
SIDNEY PTSUNNY 68 64 88 CALM 29.82S  
SYRACUSE LGT RAIN 68 66 93 E8 29.76S  

 
 
PAZ038>040-043-044-047-048-072-241500   
..NORTHEAST PENNSYLVANIA
 
 
 
CITY SKY/WX TMP DP RH WIND PRES REMARKS
 
HAZLETON N/A 72 66 83 N3 29.86S  
SCRANTON CLOUDY 69 64 84 VRB3 29.83R  

 

 
KEY  
WCI = WIND CHILL INDEX  
VSB = VISIBILITY  
HX = HEAT INDEX  

 
 
 
CLICK HERE TO GO TO PREVIOUS BULLETINS.

The Nexlab NY Page
The Nexlab PA Page Main Text Page